Tracking 30923 objects as of 1-Jul-2025
HD Live streaming from Space Station
objects crossing your sky now

COSMOS 2251 DEB

Track COSMOS 2251 DEB now!
10-day predictions


NORAD ID: 34477
Int'l Code: 1993-036TW
Perigee: 660.1 km
Apogee: 769.7 km
Inclination: 74.0 °
Period: 98.9 minutes
Semi major axis: 7085 km
RCS: 0.0204 m2 (small)
Launch date: June 16, 1993
Source: Commonwealth of Independent States (former USSR) (CIS)
Launch site: PLESETSK MISSILE AND SPACE COMPLEX (PKMTR)

Note: This is SATELLITE DEBRIS
Your satellite tracking list
Your tracking list is empty




NASA's NSSDC Master Catalog

Two Line Element Set (TLE):
1 34477U 93036TW  25181.69788940  .00001310  00000-0  29617-3 0  9997
2 34477  73.9783  23.5998 0077363 247.9277 230.6524 14.55503162862532
Source of the keplerian elements: AFSPC